| time (UTC) | temp C | wind direction | speed KPH | gust KPH | rain 1hr cm | rain 24hr cm | rain mn cm | humidity % | barometer mb |
| 20260509202032 | 15 | 326 | 6.4 | 9.7 | 0.00 | 0.41 | 0.41 | 78 | 1009.6 |
| 20260509201542 | 16 | 307 | 4.8 | 8.0 | 0.00 | 0.41 | 0.41 | 77 | 1009.6 |
| 20260509201031 | 16 | 326 | 4.8 | 8.0 | 0.00 | 0.41 | 0.41 | 76 | 1009.6 |
| 20260509200531 | 16 | 316 | 3.2 | 6.4 | 0.00 | 0.41 | 0.41 | 74 | 1009.6 |
| 20260509200044 | 16 | 308 | 3.2 | 6.4 | 0.00 | 0.41 | 0.41 | 74 | 1009.6 |
| 20260509195533 | 16 | 310 | 3.2 | 6.4 | 0.00 | 0.41 | 0.41 | 72 | 1009.7 |
| 20260509195031 | 16 | 328 | 3.2 | 6.4 | 0.00 | 0.41 | 0.41 | 71 | 1009.8 |
| 20260509194543 | 16 | 0 | 0.0 | 6.4 | 0.00 | 0.41 | 0.41 | 71 | 1009.7 |
| 20260509194031 | 16 | 288 | 3.2 | 8.0 | 0.00 | 0.41 | 0.41 | 68 | 1009.9 |
| 20260509193530 | 16 | 279 | 1.6 | 8.0 | 0.00 | 0.41 | 0.41 | 69 | 1009.8 |
| 20260509193045 | 17 | 285 | 3.2 | 4.8 | 0.00 | 0.41 | 0.41 | 68 | 1009.9 |
| 20260509192531 | 17 | 0 | 0.0 | 8.0 | 0.00 | 0.41 | 0.41 | 66 | 1009.6 |
| 20260509192032 | 17 | 79 | 3.2 | 8.0 | 0.00 | 0.41 | 0.41 | 64 | 1009.4 |
| 20260509191543 | 17 | 0 | 0.0 | 6.4 | 0.00 | 0.41 | 0.41 | 67 | 1009.5 |
| 20260509191033 | 17 | 3 | 0.0 | 8.0 | 0.00 | 0.41 | 0.41 | 66 | 1009.7 |
| 20260509190531 | 17 | 217 | 4.8 | 8.0 | 0.00 | 0.41 | 0.41 | 64 | 1009.7 |
| 20260509190053 | 17 | 231 | 1.6 | 6.4 | 0.00 | 0.41 | 0.41 | 68 | 1009.6 |
| 20260509185529 | 17 | 234 | 1.6 | 8.0 | 0.00 | 0.41 | 0.41 | 70 | 1009.4 |
| 20260509185031 | 17 | 238 | 3.2 | 8.0 | 0.00 | 0.41 | 0.41 | 73 | 1009.6 |
| 20260509184558 | 16 | 146 | 3.2 | 9.7 | 0.00 | 0.41 | 0.41 | 71 | 1009.5 |
| 20260509184030 | 16 | 0 | 1.6 | 9.7 | 0.00 | 0.41 | 0.41 | 73 | 1009.7 |
| 20260509183530 | 16 | 1 | 1.6 | 6.4 | 0.00 | 0.41 | 0.41 | 70 | 1009.7 |
| 20260509183047 | 16 | 0 | 0.0 | 8.0 | 0.00 | 0.41 | 0.41 | 72 | 1009.9 |
| 20260509182529 | 16 | 273 | 4.8 | 9.7 | 0.00 | 0.41 | 0.41 | 74 | 1010.1 |
| 20260509182031 | 15 | 139 | 3.2 | 9.7 | 0.00 | 0.41 | 0.41 | 74 | 1010.3 |
| 20260509181548 | 15 | 101 | 6.4 | 8.0 | 0.00 | 0.41 | 0.41 | 77 | 1010.1 |
| 20260509181030 | 15 | 138 | 4.8 | 12.9 | 0.00 | 0.41 | 0.41 | 77 | 1010.2 |
| 20260509180532 | 15 | 161 | 3.2 | 12.9 | 0.00 | 0.41 | 0.41 | 79 | 1010.3 |
| 20260509180045 | 15 | 147 | 6.4 | 12.9 | 0.00 | 0.41 | 0.41 | 78 | 1010.3 |
| 20260509175534 | 15 | 113 | 6.4 | 11.3 | 0.00 | 0.41 | 0.41 | 78 | 1010.3 |
| 20260509175031 | 15 | 141 | 4.8 | 11.3 | 0.00 | 0.41 | 0.41 | 78 | 1010.3 |
| 20260509174543 | 15 | 147 | 4.8 | 11.3 | 0.00 | 0.41 | 0.41 | 79 | 1010.4 |
| 20260509174035 | 15 | 181 | 6.4 | 12.9 | 0.00 | 0.41 | 0.41 | 79 | 1010.5 |
| 20260509173531 | 15 | 150 | 6.4 | 12.9 | 0.00 | 0.41 | 0.41 | 80 | 1010.7 |
| 20260509173042 | 14 | 127 | 6.4 | 9.7 | 0.00 | 0.41 | 0.41 | 82 | 1010.7 |
| 20260509172530 | 14 | 157 | 4.8 | 11.3 | 0.00 | 0.41 | 0.41 | 82 | 1010.7 |
| 20260509172031 | 14 | 158 | 8.0 | 11.3 | 0.00 | 0.41 | 0.41 | 81 | 1010.7 |
| 20260509171538 | 13 | 147 | 6.4 | 11.3 | 0.00 | 0.41 | 0.41 | 83 | 1010.8 |
| 20260509171031 | 13 | 128 | 3.2 | 6.4 | 0.00 | 0.41 | 0.41 | 83 | 1010.9 |
| 20260509170530 | 13 | 129 | 3.2 | 8.0 | 0.00 | 0.41 | 0.41 | 82 | 1010.7 |
| 20260509170053 | 13 | 113 | 1.6 | 8.0 | 0.00 | 0.41 | 0.41 | 83 | 1010.9 |
| 20260509165531 | 13 | 151 | 4.8 | 8.0 | 0.00 | 0.41 | 0.41 | 84 | 1011.1 |
| 20260509165031 | 13 | 138 | 4.8 | 8.0 | 0.00 | 0.41 | 0.41 | 85 | 1011.2 |
| 20260509164543 | 13 | 204 | 4.8 | 8.0 | 0.00 | 0.41 | 0.41 | 84 | 1011.3 |
| 20260509164031 | 13 | 162 | 4.8 | 8.0 | 0.00 | 0.41 | 0.41 | 86 | 1011.4 |
| 20260509163531 | 13 | 225 | 3.2 | 6.4 | 0.00 | 0.41 | 0.41 | 85 | 1011.4 |
| 20260509163058 | 13 | 199 | 4.8 | 6.4 | 0.00 | 0.41 | 0.41 | 84 | 1011.5 |
| 20260509162530 | 13 | 226 | 1.6 | 4.8 | 0.00 | 0.41 | 0.41 | 84 | 1011.4 |
| 20260509162034 | 13 | 193 | 0.0 | 0.0 | 0.00 | 0.41 | 0.41 | 84 | 1011.3 |
| 20260509161539 | 13 | 0 | 0.0 | 3.2 | 0.00 | 0.41 | 0.41 | 84 | 1011.3 |
| 20260509161030 | 13 | 0 | 1.6 | 4.8 | 0.00 | 0.41 | 0.41 | 83 | 1011.2 |
| 20260509160531 | 13 | 0 | 0.0 | 4.8 | 0.00 | 0.41 | 0.41 | 83 | 1011.2 |
| 20260509160047 | 13 | 227 | 3.2 | 4.8 | 0.00 | 0.41 | 0.41 | 83 | 1011.2 |
| 20260509155530 | 13 | 143 | 3.2 | 4.8 | 0.00 | 0.41 | 0.41 | 85 | 1011.0 |
| 20260509155032 | 13 | 0 | 0.0 | 3.2 | 0.00 | 0.41 | 0.41 | 84 | 1011.0 |
| 20260509154547 | 12 | 0 | 0.0 | 3.2 | 0.00 | 0.41 | 0.41 | 86 | 1011.0 |
| 20260509154032 | 12 | 131 | 0.0 | 4.8 | 0.03 | 0.41 | 0.41 | 87 | 1010.8 |
| 20260509153529 | 12 | 0 | 1.6 | 11.3 | 0.03 | 0.41 | 0.41 | 87 | 1010.7 |
| 20260509153043 | 12 | 343 | 3.2 | 11.3 | 0.05 | 0.41 | 0.41 | 89 | 1010.8 |
| 20260509152530 | 12 | 44 | 6.4 | 11.3 | 0.05 | 0.41 | 0.41 | 89 | 1010.7 |
| 20260509152033 | 12 | 35 | 4.8 | 9.7 | 0.08 | 0.41 | 0.41 | 90 | 1010.8 |
| 20260509151542 | 11 | 338 | 6.4 | 9.7 | 0.10 | 0.41 | 0.41 | 90 | 1010.9 |
| 20260509151029 | 11 | 31 | 3.2 | 11.3 | 0.13 | 0.41 | 0.41 | 91 | 1011.0 |
| 20260509150531 | 11 | 342 | 6.4 | 11.3 | 0.15 | 0.41 | 0.41 | 91 | 1010.8 |
| 20260509150041 | 11 | 12 | 6.4 | 11.3 | 0.18 | 0.41 | 0.41 | 91 | 1010.9 |
| 20260509145531 | 11 | 334 | 4.8 | 11.3 | 0.23 | 0.41 | 0.41 | 90 | 1011.3 |
| 20260509145031 | 11 | 334 | 6.4 | 9.7 | 0.25 | 0.41 | 0.41 | 90 | 1011.4 |
| 20260509144545 | 11 | 333 | 6.4 | 14.5 | 0.25 | 0.41 | 0.41 | 90 | 1011.4 |
| 20260509144031 | 11 | 330 | 6.4 | 14.5 | 0.25 | 0.38 | 0.38 | 90 | 1011.5 |
| 20260509143530 | 11 | 332 | 6.4 | 9.7 | 0.25 | 0.38 | 0.38 | 90 | 1011.5 |
| 20260509143051 | 11 | 325 | 3.2 | 4.8 | 0.25 | 0.36 | 0.36 | 90 | 1011.6 |
| 20260509142530 | 11 | 110 | 3.2 | 4.8 | 0.25 | 0.33 | 0.33 | 90 | 1011.6 |
| 20260509142032 | 11 | 116 | 1.6 | 3.2 | 0.25 | 0.33 | 0.33 | 90 | 1011.6 |
| 20260509141553 | 11 | 0 | 0.0 | 0.0 | 0.25 | 0.30 | 0.30 | 89 | 1011.6 |
| 20260509141032 | 11 | 0 | 0.0 | 0.0 | 0.20 | 0.25 | 0.25 | 89 | 1011.5 |
| 20260509140530 | 11 | 0 | 0.0 | 0.0 | 0.20 | 0.23 | 0.23 | 89 | 1011.5 |
| 20260509140051 | 11 | 0 | 0.0 | 1.6 | 0.20 | 0.23 | 0.23 | 88 | 1011.5 |
| 20260509135529 | 11 | 0 | 0.0 | 1.6 | 0.15 | 0.18 | 0.18 | 88 | 1011.5 |
| 20260509135034 | 11 | 116 | 1.6 | 1.6 | 0.13 | 0.15 | 0.15 | 87 | 1011.5 |
| 20260509134540 | 12 | 0 | 0.0 | 0.0 | 0.13 | 0.15 | 0.15 | 88 | 1011.3 |
| 20260509134031 | 12 | 0 | 0.0 | 0.0 | 0.10 | 0.13 | 0.13 | 88 | 1011.3 |
| 20260509133532 | 12 | 0 | 0.0 | 4.8 | 0.13 | 0.13 | 0.13 | 88 | 1011.4 |
| 20260509133042 | 12 | 0 | 0.0 | 4.8 | 0.10 | 0.10 | 0.10 | 88 | 1011.3 |
| 20260509132529 | 12 | 116 | 3.2 | 4.8 | 0.08 | 0.08 | 0.08 | 88 | 1011.4 |
| 20260509132030 | 12 | 0 | 0.0 | 0.0 | 0.08 | 0.08 | 0.08 | 87 | 1011.3 |
| 20260509131545 | 12 | 0 | 0.0 | 0.0 | 0.05 | 0.05 | 0.05 | 87 | 1011.3 |
| 20260509131032 | 12 | 0 | 0.0 | 0.0 | 0.05 | 0.05 | 0.05 | 87 | 1011.4 |
| 20260509130529 | 11 | 0 | 0.0 | 0.0 | 0.03 | 0.03 | 0.03 | 87 | 1011.4 |
| 20260509130048 | 11 | 0 | 0.0 | 0.0 | 0.03 | 0.03 | 0.03 | 87 | 1011.2 |
| 20260509125530 | 11 | 0 | 0.0 | 0.0 | 0.03 | 0.03 | 0.03 | 87 | 1011.3 |
| 20260509125030 | 11 | 0 | 0.0 | 0.0 | 0.03 | 0.03 | 0.03 | 87 | 1011.2 |
| 20260509124542 | 11 | 0 | 0.0 | 0.0 | 0.03 | 0.03 | 0.03 | 87 | 1011.2 |
| 20260509124031 | 11 | 0 | 0.0 | 0.0 | 0.03 | 0.03 | 0.03 | 88 | 1011.2 |
| 20260509123531 | 11 | 0 | 0.0 | 0.0 | 0.00 | 0.00 | 0.00 | 88 | 1011.3 |
| 20260509123051 | 11 | 0 | 0.0 | 0.0 | 0.00 | 0.00 | 0.00 | 88 | 1011.3 |
| 20260509122530 | 11 | 0 | 0.0 | 0.0 | 0.00 | 0.00 | 0.00 | 87 | 1011.5 |
| 20260509122032 | 11 | 0 | 0.0 | 0.0 | 0.00 | 0.00 | 0.00 | 87 | 1011.5 |
| 20260509121538 | 11 | 0 | 0.0 | 0.0 | 0.00 | 0.00 | 0.00 | 88 | 1011.5 |
| 20260509121030 | 11 | 0 | 0.0 | 3.2 | 0.00 | 0.00 | 0.00 | 88 | 1011.6 |
| 20260509120531 | 11 | 0 | 0.0 | 3.2 | 0.00 | 0.00 | 0.00 | 88 | 1011.6 |
| 20260509120046 | 10 | 202 | 1.6 | 3.2 | 0.00 | 0.00 | 0.00 | 88 | 1011.8 |
| 20260509115531 | 10 | 202 | 1.6 | 3.2 | 0.00 | 0.00 | 0.00 | 89 | 1011.7 |
| 20260509115032 | 10 | 217 | 1.6 | 3.2 | 0.00 | 0.00 | 0.00 | 88 | 1011.6 |
| 20260509114543 | 10 | 249 | 1.6 | 9.7 | 0.00 | 0.00 | 0.00 | 89 | 1011.5 |
| 20260509114032 | 10 | 162 | 4.8 | 9.7 | 0.00 | 0.00 | 0.00 | 90 | 1011.6 |
| 20260509113529 | 10 | 152 | 4.8 | 8.0 | 0.00 | 0.00 | 0.00 | 89 | 1011.7 |
| 20260509113100 | 10 | 0 | 1.6 | 6.4 | 0.00 | 0.00 | 0.00 | 88 | 1011.4 |
| 20260509112531 | 10 | 319 | 3.2 | 6.4 | 0.00 | 0.00 | 0.00 | 88 | 1011.1 |
| 20260509112032 | 10 | 333 | 4.8 | 6.4 | 0.00 | 0.00 | 0.00 | 89 | 1011.1 |
| 20260509111547 | 10 | 330 | 1.6 | 4.8 | 0.00 | 0.00 | 0.00 | 88 | 1011.2 |
| 20260509111031 | 10 | 349 | 1.6 | 4.8 | 0.00 | 0.00 | 0.00 | 87 | 1011.2 |
| 20260509110529 | 10 | 0 | 0.0 | 0.0 | 0.00 | 0.00 | 0.00 | 87 | 1011.1 |
| 20260509110047 | 10 | 0 | 0.0 | 0.0 | 0.00 | 0.00 | 0.00 | 86 | 1011.1 |
| 20260509105529 | 10 | 0 | 0.0 | 0.0 | 0.00 | 0.00 | 0.00 | 86 | 1011.0 |
| 20260509105030 | 10 | 0 | 0.0 | 1.6 | 0.00 | 0.00 | 0.00 | 85 | 1011.0 |
| 20260509104555 | 10 | 0 | 0.0 | 3.2 | 0.00 | 0.00 | 0.00 | 85 | 1010.9 |
| 20260509104028 | 10 | 129 | 1.6 | 3.2 | 0.00 | 0.00 | 0.00 | 85 | 1010.7 |
| 20260509103528 | 10 | 138 | 1.6 | 3.2 | 0.00 | 0.00 | 0.00 | 85 | 1010.8 |
| 20260509103052 | 10 | 138 | 1.6 | 3.2 | 0.00 | 0.00 | 0.00 | 85 | 1010.8 |
| 20260509102531 | 10 | 138 | 0.0 | 1.6 | 0.00 | 0.00 | 0.00 | 85 | 1010.8 |
| 20260509102032 | 10 | 0 | 0.0 | 0.0 | 0.00 | 0.00 | 0.00 | 86 | 1010.7 |
| 20260509101543 | 10 | 0 | 0.0 | 0.0 | 0.00 | 0.00 | 0.00 | 86 | 1010.7 |
| 20260509101028 | 10 | 0 | 0.0 | 0.0 | 0.00 | 0.00 | 0.00 | 85 | 1010.6 |
| 20260509100528 | 10 | 0 | 0.0 | 0.0 | 0.00 | 0.00 | 0.00 | 85 | 1010.4 |
| 20260509100104 | 10 | 0 | 0.0 | 0.0 | 0.00 | 0.00 | 0.00 | 85 | 1010.4 |
| 20260509095531 | 10 | 0 | 0.0 | 0.0 | 0.00 | 0.00 | 0.00 | 85 | 1010.3 |
| 20260509095030 | 10 | 0 | 0.0 | 0.0 | 0.00 | 0.00 | 0.00 | 84 | 1010.2 |
| 20260509094547 | 10 | 0 | 0.0 | 0.0 | 0.00 | 0.00 | 0.00 | 84 | 1010.3 |
| 20260509094030 | 10 | 0 | 0.0 | 0.0 | 0.00 | 0.00 | 0.00 | 83 | 1010.3 |
| 20260509093532 | 10 | 0 | 0.0 | 0.0 | 0.00 | 0.00 | 0.00 | 83 | 1010.1 |
| 20260509093044 | 10 | 0 | 0.0 | 0.0 | 0.00 | 0.00 | 0.00 | 83 | 1010.0 |
| 20260509092528 | 10 | 0 | 0.0 | 0.0 | 0.00 | 0.00 | 0.00 | 83 | 1010.3 |
| 20260509092031 | 10 | 0 | 0.0 | 0.0 | 0.00 | 0.00 | 0.00 | 82 | 1010.3 |
| 20260509091554 | 10 | 0 | 0.0 | 0.0 | 0.00 | 0.00 | 0.00 | 82 | 1010.2 |
| 20260509091029 | 10 | 0 | 0.0 | 0.0 | 0.00 | 0.00 | 0.00 | 82 | 1010.3 |
| 20260509090529 | 10 | 0 | 0.0 | 0.0 | 0.00 | 0.00 | 0.00 | 81 | 1010.3 |
| 20260509090043 | 10 | 0 | 0.0 | 0.0 | 0.00 | 0.00 | 0.00 | 81 | 1010.2 |
| 20260509085528 | 10 | 0 | 0.0 | 0.0 | 0.00 | 0.00 | 0.00 | 81 | 1010.3 |
| 20260509085031 | 10 | 0 | 0.0 | 0.0 | 0.00 | 0.00 | 0.00 | 80 | 1010.2 |
| 20260509084541 | 10 | 0 | 0.0 | 0.0 | 0.00 | 0.00 | 0.00 | 80 | 1010.2 |
| 20260509084028 | 10 | 0 | 0.0 | 0.0 | 0.00 | 0.00 | 0.00 | 80 | 1010.3 |
| 20260509083531 | 10 | 0 | 0.0 | 0.0 | 0.00 | 0.00 | 0.00 | 79 | 1010.3 |
| 20260509083046 | 10 | 0 | 0.0 | 0.0 | 0.00 | 0.00 | 0.00 | 80 | 1010.3 |
| 20260509082530 | 10 | 0 | 0.0 | 0.0 | 0.00 | 0.00 | 0.00 | 79 | 1010.4 |
| 20260509082029 | 10 | 0 | 0.0 | 1.6 | 0.00 | 0.00 | 0.00 | 79 | 1010.4 |
| 20260509081556 | 10 | 0 | 0.0 | 3.2 | 0.00 | 0.00 | 0.00 | 80 | 1010.4 |
| 20260509081031 | 10 | 138 | 1.6 | 3.2 | 0.00 | 0.00 | 0.00 | 80 | 1010.4 |
| 20260509080534 | 10 | 138 | 1.6 | 3.2 | 0.00 | 0.00 | 0.00 | 81 | 1010.5 |
| 20260509080049 | 10 | 138 | 1.6 | 3.2 | 0.00 | 0.00 | 0.00 | 80 | 1010.5 |
| 20260509075528 | 11 | 138 | 1.6 | 3.2 | 0.00 | 0.00 | 0.00 | 80 | 1010.4 |
| 20260509075028 | 11 | 138 | 1.6 | 3.2 | 0.00 | 0.00 | 0.00 | 79 | 1010.5 |
| 20260509074544 | 11 | 113 | 3.2 | 3.2 | 0.00 | 0.00 | 0.00 | 78 | 1010.4 |
| 20260509074032 | 11 | 96 | 1.6 | 6.4 | 0.00 | 0.00 | 0.00 | 78 | 1010.4 |
| 20260509073531 | 11 | 96 | 3.2 | 6.4 | 0.00 | 0.00 | 0.00 | 78 | 1010.4 |
| 20260509073046 | 10 | 93 | 4.8 | 6.4 | 0.00 | 0.00 | 0.00 | 79 | 1010.3 |
| 20260509072528 | 10 | 0 | 0.0 | 3.2 | 0.00 | 0.00 | 0.00 | 78 | 1010.4 |
| 20260509072030 | 11 | 0 | 0.0 | 3.2 | 0.00 | 0.00 | 0.00 | 78 | 1010.6 |
| 20260509071547 | 11 | 59 | 1.6 | 6.4 | 0.00 | 0.00 | 0.00 | 78 | 1010.5 |
| 20260509071028 | 11 | 58 | 3.2 | 6.4 | 0.00 | 0.00 | 0.00 | 77 | 1010.5 |
| 20260509070531 | 11 | 35 | 1.6 | 4.8 | 0.00 | 0.00 | 0.00 | 77 | 1010.7 |
| 20260509070045 | 11 | 34 | 1.6 | 4.8 | 0.00 | 0.00 | 0.00 | 76 | 1010.7 |
| 20260509065530 | 11 | 0 | 0.0 | 6.4 | 0.00 | 0.00 | 0.00 | 75 | 1010.8 |
| 20260509065030 | 11 | 351 | 1.6 | 9.7 | 0.00 | 0.00 | 0.00 | 75 | 1010.8 |
| 20260509064543 | 11 | 1 | 3.2 | 9.7 | 0.00 | 0.00 | 0.00 | 75 | 1010.9 |
| 20260509064032 | 11 | 37 | 4.8 | 9.7 | 0.00 | 0.00 | 0.00 | 75 | 1010.8 |
| 20260509063530 | 11 | 340 | 4.8 | 9.7 | 0.00 | 0.00 | 0.00 | 75 | 1010.9 |
| 20260509063044 | 11 | 319 | 4.8 | 9.7 | 0.00 | 0.00 | 0.00 | 75 | 1010.9 |
| 20260509062528 | 11 | 348 | 1.6 | 6.4 | 0.00 | 0.00 | 0.00 | 74 | 1010.8 |
| 20260509062028 | 11 | 310 | 1.6 | 6.4 | 0.00 | 0.00 | 0.00 | 74 | 1010.9 |
| 20260509061552 | 11 | 307 | 4.8 | 6.4 | 0.00 | 0.00 | 0.00 | 72 | 1010.9 |
| 20260509061033 | 11 | 73 | 3.2 | 4.8 | 0.00 | 0.00 | 0.00 | 74 | 1010.8 |
| 20260509060528 | 11 | 0 | 0.0 | 3.2 | 0.00 | 0.00 | 0.00 | 76 | 1010.9 |
| 20260509060047 | 11 | 0 | 0.0 | 3.2 | 0.00 | 0.00 | 0.00 | 74 | 1010.9 |
| 20260509055535 | 11 | 0 | 1.6 | 3.2 | 0.00 | 0.00 | 0.00 | 73 | 1010.9 |
| 20260509055030 | 11 | 74 | 0.0 | 0.0 | 0.00 | 0.00 | 0.00 | 73 | 1011.0 |
| 20260509054554 | 11 | 0 | 0.0 | 0.0 | 0.00 | 0.00 | 0.00 | 72 | 1011.0 |
| 20260509054031 | 11 | 0 | 0.0 | 0.0 | 0.00 | 0.00 | 0.00 | 71 | 1011.1 |
| 20260509053531 | 11 | 0 | 0.0 | 1.6 | 0.00 | 0.00 | 0.00 | 71 | 1011.1 |
| 20260509053055 | 11 | 0 | 0.0 | 1.6 | 0.00 | 0.00 | 0.00 | 71 | 1011.1 |
| 20260509052531 | 11 | 74 | 1.6 | 3.2 | 0.00 | 0.00 | 0.00 | 71 | 1011.2 |
| 20260509052028 | 12 | 74 | 1.6 | 3.2 | 0.00 | 0.00 | 0.00 | 72 | 1011.0 |
| 20260509051548 | 12 | 0 | 0.0 | 0.0 | 0.00 | 0.00 | 0.00 | 71 | 1011.1 |
| 20260509051031 | 12 | 0 | 0.0 | 3.2 | 0.00 | 0.00 | 0.00 | 70 | 1011.2 |
| 20260509050529 | 12 | 0 | 0.0 | 3.2 | 0.00 | 0.00 | 0.00 | 69 | 1011.2 |
| 20260509050053 | 12 | 74 | 1.6 | 3.2 | 0.00 | 0.00 | 0.00 | 69 | 1011.2 |
| 20260509045532 | 12 | 74 | 1.6 | 3.2 | 0.00 | 0.00 | 0.00 | 68 | 1011.1 |
| 20260509045028 | 12 | 74 | 1.6 | 3.2 | 0.00 | 0.00 | 0.00 | 64 | 1011.0 |
| 20260509044549 | 12 | 74 | 1.6 | 4.8 | 0.00 | 0.00 | 0.00 | 65 | 1011.0 |
| 20260509044032 | 12 | 74 | 1.6 | 4.8 | 0.00 | 0.00 | 0.00 | 70 | 1011.1 |
| 20260509043531 | 12 | 74 | 3.2 | 4.8 | 0.00 | 0.00 | 0.00 | 68 | 1011.2 |
| 20260509043045 | 12 | 81 | 3.2 | 4.8 | 0.00 | 0.00 | 0.00 | 66 | 1011.2 |
| 20260509042531 | 12 | 81 | 1.6 | 4.8 | 0.00 | 0.00 | 0.00 | 68 | 1011.4 |
| 20260509042031 | 12 | 81 | 1.6 | 3.2 | 0.00 | 0.00 | 0.00 | 67 | 1011.4 |
| 20260509041543 | 12 | 81 | 0.0 | 3.2 | 0.00 | 0.00 | 0.00 | 66 | 1011.4 |
| 20260509041031 | 12 | 0 | 0.0 | 0.0 | 0.00 | 0.00 | 0.00 | 63 | 1011.5 |
| 20260509040532 | 12 | 0 | 0.0 | 0.0 | 0.00 | 0.00 | 0.00 | 64 | 1011.5 |
| 20260509040048 | 12 | 0 | 0.0 | 0.0 | 0.00 | 0.00 | 0.00 | 66 | 1011.6 |
| 20260509035530 | 12 | 0 | 0.0 | 0.0 | 0.00 | 0.00 | 0.00 | 64 | 1011.6 |
| 20260509035031 | 13 | 0 | 0.0 | 0.0 | 0.00 | 0.00 | 0.00 | 65 | 1011.5 |
| 20260509034542 | 13 | 0 | 0.0 | 1.6 | 0.00 | 0.00 | 0.00 | 61 | 1011.7 |
| 20260509034030 | 13 | 0 | 0.0 | 4.8 | 0.00 | 0.00 | 0.00 | 62 | 1011.6 |
| 20260509033531 | 13 | 81 | 1.6 | 4.8 | 0.00 | 0.00 | 0.00 | 64 | 1011.6 |
| 20260509033043 | 13 | 81 | 3.2 | 4.8 | 0.00 | 0.00 | 0.00 | 59 | 1011.5 |
| 20260509032532 | 13 | 99 | 1.6 | 3.2 | 0.00 | 0.00 | 0.00 | 59 | 1011.6 |
| 20260509032031 | 13 | 0 | 0.0 | 3.2 | 0.00 | 0.00 | 0.00 | 61 | 1011.6 |
| 20260509031546 | 13 | 79 | 1.6 | 8.0 | 0.00 | 0.00 | 0.00 | 60 | 1011.8 |
| 20260509031028 | 13 | 0 | 0.0 | 8.0 | 0.00 | 0.00 | 0.00 | 61 | 1011.9 |
| 20260509030531 | 13 | 273 | 1.6 | 14.5 | 0.00 | 0.00 | 0.00 | 59 | 1012.0 |
| 20260509030044 | 13 | 0 | 0.0 | 14.5 | 0.00 | 0.00 | 0.00 | 63 | 1012.1 |
| 20260509025527 | 13 | 314 | 8.0 | 14.5 | 0.00 | 0.00 | 0.00 | 60 | 1012.0 |
| 20260509025028 | 12 | 273 | 1.6 | 8.0 | 0.00 | 0.00 | 0.00 | 67 | 1012.0 |
| 20260509024545 | 12 | 0 | 0.0 | 3.2 | 0.00 | 0.00 | 0.00 | 69 | 1011.8 |
| 20260509024030 | 12 | 13 | 1.6 | 4.8 | 0.00 | 0.00 | 0.00 | 67 | 1011.8 |
| 20260509023530 | 13 | 0 | 1.6 | 4.8 | 0.00 | 0.00 | 0.00 | 68 | 1012.0 |
| 20260509023046 | 13 | 0 | 0.0 | 4.8 | 0.00 | 0.00 | 0.00 | 64 | 1011.9 |
| 20260509022531 | 13 | 117 | 1.6 | 3.2 | 0.00 | 0.00 | 0.00 | 64 | 1011.9 |
| 20260509022030 | 13 | 130 | 1.6 | 3.2 | 0.00 | 0.00 | 0.00 | 63 | 1011.8 |
| 20260509021544 | 13 | 0 | 0.0 | 3.2 | 0.00 | 0.00 | 0.00 | 63 | 1012.0 |
| 20260509021028 | 13 | 131 | 1.6 | 3.2 | 0.00 | 0.00 | 0.00 | 63 | 1012.1 |
| 20260509020533 | 13 | 131 | 1.6 | 3.2 | 0.00 | 0.00 | 0.00 | 64 | 1011.9 |
| 20260509020044 | 13 | 0 | 0.0 | 3.2 | 0.00 | 0.00 | 0.00 | 64 | 1011.9 |
| 20260509015533 | 12 | 0 | 0.0 | 4.8 | 0.00 | 0.00 | 0.00 | 65 | 1012.0 |
| 20260509015029 | 12 | 131 | 3.2 | 6.4 | 0.00 | 0.00 | 0.00 | 66 | 1012.0 |
| 20260509014544 | 12 | 137 | 4.8 | 6.4 | 0.00 | 0.00 | 0.00 | 67 | 1012.0 |
| 20260509014035 | 12 | 143 | 4.8 | 6.4 | 0.00 | 0.00 | 0.00 | 67 | 1012.0 |
| 20260509013530 | 12 | 126 | 4.8 | 6.4 | 0.00 | 0.00 | 0.00 | 66 | 1012.0 |
| 20260509013045 | 13 | 0 | 0.0 | 3.2 | 0.00 | 0.00 | 0.00 | 66 | 1011.9 |
| 20260509012532 | 13 | 0 | 0.0 | 4.8 | 0.00 | 0.00 | 0.00 | 66 | 1011.9 |
| 20260509012030 | 13 | 121 | 3.2 | 6.4 | 0.00 | 0.00 | 0.00 | 65 | 1011.9 |
| 20260509011538 | 13 | 117 | 4.8 | 6.4 | 0.00 | 0.00 | 0.00 | 64 | 1011.8 |
| 20260509011031 | 13 | 87 | 3.2 | 4.8 | 0.00 | 0.00 | 0.00 | 63 | 1011.7 |
| 20260509010530 | 13 | 86 | 3.2 | 4.8 | 0.00 | 0.00 | 0.00 | 63 | 1011.4 |
| 20260509010039 | 13 | 98 | 3.2 | 6.4 | 0.00 | 0.00 | 0.00 | 66 | 1011.5 |
| 20260509005531 | 13 | 113 | 1.6 | 6.4 | 0.00 | 0.00 | 0.00 | 60 | 1011.4 |
| 20260509005030 | 13 | 115 | 4.8 | 6.4 | 0.00 | 0.00 | 0.00 | 63 | 1011.5 |
| 20260509004545 | 13 | 0 | 0.0 | 0.0 | 0.00 | 0.00 | 0.00 | 58 | 1011.5 |
| 20260509004028 | 13 | 0 | 0.0 | 0.0 | 0.00 | 0.00 | 0.00 | 59 | 1011.5 |
| 20260509003531 | 13 | 0 | 0.0 | 0.0 | 0.00 | 0.00 | 0.00 | 58 | 1011.5 |
| 20260509003043 | 13 | 0 | 0.0 | 0.0 | 0.00 | 0.00 | 0.00 | 57 | 1011.5 |
| 20260509002530 | 13 | 0 | 0.0 | 0.0 | 0.00 | 0.00 | 0.00 | 58 | 1011.6 |
| 20260509002031 | 13 | 0 | 0.0 | 1.6 | 0.00 | 0.00 | 0.00 | 58 | 1011.6 |
| 20260509001542 | 14 | 0 | 0.0 | 3.2 | 0.00 | 0.00 | 0.00 | 56 | 1011.5 |
| 20260509001030 | 14 | 337 | 1.6 | 3.2 | 0.00 | 0.00 | 0.00 | 56 | 1011.5 |
| 20260509000527 | 15 | 0 | 0.0 | 0.0 | 0.00 | 0.00 | 0.00 | 53 | 1011.4 |
| 20260509000041 | 15 | 0 | 0.0 | 0.0 | 0.00 | 0.00 | 0.00 | 54 | 1011.4 |
| 20260508235527 | 15 | 0 | 0.0 | 1.6 | 0.00 | 0.00 | 0.00 | 52 | 1011.4 |
| 20260508235028 | 15 | 0 | 0.0 | 3.2 | 0.00 | 0.00 | 0.00 | 53 | 1011.5 |
| 20260508234550 | 16 | 0 | 1.6 | 4.8 | 0.00 | 0.00 | 0.00 | 50 | 1011.4 |
| 20260508234028 | 16 | 332 | 1.6 | 4.8 | 0.00 | 0.00 | 0.00 | 49 | 1011.3 |
| 20260508233530 | 16 | 307 | 1.6 | 4.8 | 0.00 | 0.00 | 0.00 | 48 | 1011.4 |
| 20260508233042 | 17 | 303 | 1.6 | 4.8 | 0.00 | 0.00 | 0.00 | 46 | 1011.3 |
| 20260508232530 | 17 | 278 | 1.6 | 4.8 | 0.00 | 0.00 | 0.00 | 46 | 1011.3 |
| 20260508232030 | 17 | 0 | 0.0 | 9.7 | 0.00 | 0.00 | 0.00 | 47 | 1011.2 |
| 20260508231604 | 17 | 288 | 3.2 | 9.7 | 0.00 | 0.00 | 0.00 | 47 | 1011.2 |
| 20260508231032 | 17 | 290 | 4.8 | 11.3 | 0.00 | 0.00 | 0.00 | 46 | 1011.2 |
| 20260508230528 | 17 | 308 | 6.4 | 11.3 | 0.00 | 0.00 | 0.00 | 46 | 1011.2 |
| 20260508230056 | 17 | 292 | 4.8 | 8.0 | 0.00 | 0.00 | 0.00 | 47 | 1011.3 |
| 20260508225530 | 17 | 328 | 3.2 | 8.0 | 0.00 | 0.00 | 0.00 | 46 | 1011.3 |
| 20260508225029 | 17 | 285 | 3.2 | 6.4 | 0.00 | 0.00 | 0.00 | 46 | 1011.2 |
| 20260508224542 | 17 | 274 | 3.2 | 6.4 | 0.00 | 0.00 | 0.00 | 47 | 1011.3 |
| 20260508224029 | 17 | 284 | 3.2 | 6.4 | 0.00 | 0.00 | 0.00 | 48 | 1011.4 |
| 20260508223528 | 16 | 300 | 3.2 | 9.7 | 0.00 | 0.00 | 0.00 | 48 | 1011.3 |
| 20260508223046 | 16 | 293 | 3.2 | 11.3 | 0.00 | 0.00 | 0.00 | 46 | 1011.4 |
| 20260508222529 | 16 | 302 | 6.4 | 12.9 | 0.00 | 0.00 | 0.00 | 45 | 1011.5 |
| 20260508222027 | 17 | 276 | 6.4 | 14.5 | 0.00 | 0.00 | 0.00 | 45 | 1011.4 |
| 20260508221544 | 17 | 285 | 6.4 | 14.5 | 0.00 | 0.00 | 0.00 | 45 | 1011.4 |
| 20260508221028 | 17 | 286 | 6.4 | 11.3 | 0.00 | 0.00 | 0.00 | 46 | 1011.4 |
| 20260508220533 | 17 | 286 | 6.4 | 16.1 | 0.00 | 0.00 | 0.00 | 45 | 1011.3 |
| 20260508220045 | 17 | 277 | 6.4 | 16.1 | 0.00 | 0.00 | 0.00 | 44 | 1011.3 |
| 20260508215534 | 17 | 288 | 3.2 | 14.5 | 0.00 | 0.00 | 0.00 | 45 | 1011.3 |
| 20260508215032 | 17 | 265 | 8.0 | 17.7 | 0.00 | 0.00 | 0.00 | 43 | 1011.3 |
| 20260508214605 | 17 | 276 | 8.0 | 17.7 | 0.00 | 0.00 | 0.00 | 44 | 1011.4 |
| 20260508214034 | 17 | 247 | 6.4 | 24.1 | 0.00 | 0.00 | 0.00 | 43 | 1011.3 |
| 20260508213530 | 17 | 245 | 8.0 | 24.1 | 0.00 | 0.00 | 0.00 | 45 | 1011.4 |
| 20260508213050 | 17 | 277 | 9.7 | 24.1 | 0.00 | 0.00 | 0.00 | 44 | 1011.4 |
| 20260508212533 | 17 | 245 | 9.7 | 19.3 | 0.00 | 0.00 | 0.00 | 43 | 1011.4 |
| 20260508212036 | 17 | 283 | 6.4 | 12.9 | 0.00 | 0.00 | 0.00 | 44 | 1011.2 |
| 20260508211545 | 17 | 295 | 4.8 | 11.3 | 0.00 | 0.00 | 0.00 | 44 | 1011.2 |
| 20260508211032 | 17 | 278 | 4.8 | 14.5 | 0.00 | 0.00 | 0.00 | 44 | 1011.2 |
| 20260508210530 | 17 | 277 | 4.8 | 20.9 | 0.00 | 0.00 | 0.00 | 43 | 1011.3 |
| 20260508210052 | 17 | 282 | 8.0 | 20.9 | 0.00 | 0.00 | 0.00 | 43 | 1011.4 |
| 20260508205532 | 17 | 281 | 8.0 | 20.9 | 0.00 | 0.00 | 0.00 | 41 | 1011.3 |
| 20260508205034 | 17 | 291 | 6.4 | 25.7 | 0.00 | 0.00 | 0.00 | 41 | 1011.2 |
| 20260508204543 | 17 | 265 | 6.4 | 25.7 | 0.00 | 0.00 | 0.00 | 41 | 1011.3 |
| 20260508204030 | 17 | 288 | 9.7 | 17.7 | 0.00 | 0.00 | 0.00 | 41 | 1011.3 |
| 20260508203532 | 17 | 229 | 11.3 | 29.0 | 0.00 | 0.00 | 0.00 | 41 | 1011.4 |
| 20260508203042 | 17 | 243 | 12.9 | 29.0 | 0.00 | 0.00 | 0.00 | 40 | 1011.5 |
| 20260508202532 | 17 | 255 | 8.0 | 19.3 | 0.00 | 0.00 | 0.00 | 39 | 1011.4 |